Regional Weather Roundup
Issued by NWS

Home | Current Version | Previous Version | Graphics & Text | Print | Product List | Glossary On
Versions: 1 2 3 4 5 6 7 8 9 10 11 12 13 14 15 16 17 18 19 20 21 22 23 24 25 26 27 28 29 30 31 32 33 34 35 36 37 38 39 40 41 42 43 44 45 46 47 48 49 50
165
ASUS45 KTFX 292210
RWRMT
MONTANA REGIONAL WEATHER ROUNDUP
NATIONAL WEATHER SERVICE GREAT FALLS MT
400 PM MDT MON MAY 29 2017

NOTE: "FAIR" INDICATES FEW OR NO CLOUDS BELOW 12000 FEET WITH NO
SIGNIFICANT WEATHER AND/OR OBSTRUCTIONS TO VISIBILITY.

MTZ001>007-043-292300-
WEST OF THE DIVIDE

CITY           SKY/WX    TMP DP  RH WIND       PRES   REMARKS
KALISPELL      MOSUNNY   81  44  27 W6        30.06F
MISSOULA       MOSUNNY   81  37  20 S7        30.06F
BUTTE          MOSUNNY   73  29  19 VRB3      30.19F
MULLAN PASS    SUNNY     69  30  23 CALM      30.20F
ANACONDA         N/A     73  32  21 SW5       30.15F
DEER LODGE       N/A     75  32  20 CALM      30.17S
EUREKA           N/A     77  41  27 W7G16     30.06R
HAMILTON         N/A     81  36  19 CALM      30.06F
PLAINS           N/A     85  49  28 CALM      30.02F
RONAN            N/A     81  44  26 CALM      30.11F
$$

MTZ008-052>055-292300-
SOUTHWEST MONTANA

CITY           SKY/WX    TMP DP  RH WIND       PRES   REMARKS
BOZEMAN        SUNNY     75  29  18 CALM      30.16F
DILLON         MOSUNNY   72  35  25 VRB5      30.17F
ENNIS          SUNNY     72  34  25 N9G16     30.23F
THREE FORKS      N/A     75  32  20 E2        30.14F
TWIN BRIDGES     N/A     74  32  21 SW2       30.13F
$$

MTZ009-010-012-014-046-048-049-054-292300-
EAST SLOPES AND CENTRAL MONTANA

CITY           SKY/WX    TMP DP  RH WIND       PRES   REMARKS
CUT BANK       MOSUNNY   74  40  29 CALM      30.13F
GREAT FALLS    SUNNY     75  39  27 CALM      30.12F
MALMSTROM AFB  SUNNY     74  44  34 SE7       30.12F
HELENA         SUNNY     78  33  19 CALM      30.11F
CHOTEAU          N/A     73  43  33 W6        30.15S
CONRAD           N/A     77  48  35 NE5       30.14F
$$

MTZ011-013-016-021-045-047-050-051-292300-
NORTH CENTRAL MONTANA

CITY           SKY/WX    TMP DP  RH WIND       PRES   REMARKS
HAVRE          SUNNY     73  33  23 SE6       30.13F
LEWISTOWN      SUNNY     69  41  36 N7        30.18F
N BAR RANCH      N/A     68  39  34 N10G16    30.21F
CHINOOK          N/A     72  30  21 NE5       30.13F
FORT BENTON      N/A     75  41  29 MISG      30.12F
$$

MTZ017>020-022>027-061-062-292300-
NORTHEAST MONTANA

CITY           SKY/WX    TMP DP  RH WIND       PRES   REMARKS
GLASGOW        SUNNY     71  28  20 NW13G23   30.12F
JORDAN           N/A     73  23  15 NW16      30.14F
SIDNEY         MOSUNNY   69  31  24 N17G26    30.09F
WOLF POINT     SUNNY     73  28  18 N20       30.10F
MALTA          SUNNY     70  30  23 N12       30.12F
PLENTYWOOD       N/A     64  28  25 NW25      30.06F
POPLAR           N/A     68  30  24 NW15G22   30.10F
SCOBEY           N/A     66  29  25 NW21      30.09F
$$

MTZ028>42-056>058-292300-
SOUTHCENTRAL AND SOUTHEAST MONTANA

CITY           SKY/WX    TMP DP  RH WIND       PRES   REMARKS
BAKER          SUNNY     66  29  24 NW20G32   30.12F
BILLINGS       MOSUNNY   74  38  27 NW12      30.16F
LIVINGSTON     SUNNY     73  38  27 SW6       30.17F
MILES CITY     SUNNY     72  23  16 N12       30.12F
BIG TIMBER     SUNNY     70  41  35 VRB7      30.20F
EKALAKA          N/A     64  29  27 W9        30.11F
FORSYTH          N/A     72  21  15 NW15      30.13F
LAUREL           N/A     72  37  27 E5        30.14F
ROUNDUP          N/A     74  37  26 NW7       30.06F
$$

REGIONAL REPORTS...DAKOTAS

CITY           SKY/WX    TMP DP  RH WIND       PRES   REMARKS
WILLISTON      MOSUNNY   69  31  24 NW22G30   30.07F
MINOT          PTSUNNY   66  35  31 NW28G35   29.98S
DICKINSON      MOSUNNY   62  28  27 N20G31    30.06S
BEACH            N/A     64  30  27 N20G35    30.13F
CROSBY           N/A     66  27  22 NW21G32   30.04F
TIOGA          PTSUNNY   63  28  27 NW24G32   30.06S
WATFORD CITY     N/A     64  34  32 NW14G25   30.06S
BISMARCK       CLOUDY    65  36  34 NW20G29   30.02S
GRAND FORKS    CLOUDY    56  48  74 NW17G23   29.88F
FARGO          CLOUDY    61  47  59 NW16      29.88F
BUFFALO SD       N/A     68  32  26 NW28G37   30.05S
RAPID CITY     SUNNY     71  29  21 N26G39    30.11F
$$

REGIONAL REPORTS...WYOMING/IDAHO/WASHINGTON

CITY           SKY/WX    TMP DP  RH WIND       PRES   REMARKS
GILLETTE       SUNNY     67  31  26 N16G29    30.18S
SHERIDAN       SUNNY     69  36  29 NW21      30.19F
BUFFALO WY     SUNNY     66  30  26 N23G36    30.21S
CODY           SUNNY     68  36  30 NE8       30.22F
YELLOWSTONE LA   N/A     55  26  32 CALM      30.34F
IDAHO FALLS    MOSUNNY   76  34  21 VRB5      30.15F
SALMON         SUNNY     79  37  22 W5        30.04F
BOISE          SUNNY     87  36  16 SE7       30.01F
SPOKANE        MOSUNNY   85  38  18 VRB3      30.01F
$$

REGIONAL REPORTS...ALBERTA

CITY           SKY/WX    TMP DP  RH WIND       PRES   REMARKS
EDMONTON       SUNNY     70  37  30 E8        30.15F
CALGARY        MOSUNNY   73  41  31 S7G18     30.13S
LETHBRIDGE     MOSUNNY   77  43  29 SE10G20   30.09F
MEDICINE HAT   SUNNY     72  34  25 N7        30.12F
WATERTON GATE    N/A     73  41  31 S10         N/A
CARDSTON         N/A     77  45  31 W3          N/A
MILK RIVER       N/A     75  41  29 SE5         N/A
ONEFOUR          N/A     72  37  28 W3          N/A
$$

REGIONAL REPORTS...SASKATCHEWAN

CITY           SKY/WX    TMP DP  RH WIND       PRES   REMARKS
SWIFT CURRENT  SUNNY     64  28  25 NW10G21   30.13F
REGINA         MOSUNNY   66  23  19 N26G36    30.06F
SASKATOON      SUNNY     66  27  22 N16G26    30.12F
VAL MARIE        N/A     66  27  22 N12G18      N/A
ROCKGLEN         N/A     63  28  27 N17G23      N/A
$$




USA.gov is the U.S. government's official web portal to all federal, state and local government web resources and services.